TimeCST,TemperatureF,Dew PointF,Humidity,Sea Level PressureIn,VisibilityMPH,Wind Direction,Wind SpeedMPH,Gust SpeedMPH,PrecipitationIn,Events,Conditions,WindDirDegrees,DateUTC
12:23 AM,26.6,24.8,93,29.74,1.0,North,31.1,42.6,0.00,Snow,Light Snow,350,2012-12-20 06:23:00
12:55 AM,26.1,21.9,84,29.78,1.0,North,40.3,50.6,0.00,Snow,Light Snow,350,2012-12-20 06:55:00
1:01 AM,24.8,21.2,86,29.74,0.8,North,34.5,52.9,0.00,,Overcast,350,2012-12-20 07:01:00
1:12 AM,24.8,23.0,93,29.74,0.8,NNW,33.4,43.7,0.00,,Overcast,340,2012-12-20 07:12:00
1:24 AM,24.8,21.2,86,29.75,0.5,NNW,33.4,54.1,0.00,Fog,Light Freezing Fog,340,2012-12-20 07:24:00
1:38 AM,24.8,21.2,86,29.77,1.0,North,34.5,49.5,0.00,,Overcast,350,2012-12-20 07:38:00
1:47 AM,24.8,21.2,86,29.79,1.8,NNW,26.5,43.7,0.03,,Overcast,340,2012-12-20 07:47:00
1:50 AM,24.8,21.2,86,29.79,2.5,NNW,27.6,36.8,0.03,,Overcast,340,2012-12-20 07:50:00
1:55 AM,25.0,21.9,88,29.83,3.0,NNW,25.3,38.0,0.03,,Overcast,340,2012-12-20 07:55:00
2:08 AM,24.8,21.2,86,29.82,2.0,NNW,31.1,43.7,N/A,,Overcast,340,2012-12-20 08:08:00
2:19 AM,24.8,21.2,86,29.83,2.5,NNW,28.8,36.8,N/A,,Overcast,330,2012-12-20 08:19:00
2:36 AM,24.8,21.2,86,29.86,3.0,NNW,24.2,38.0,N/A,,Overcast,330,2012-12-20 08:36:00
2:55 AM,25.0,19.9,81,29.91,4.0,NNW,27.6,42.6,N/A,,Haze,330,2012-12-20 08:55:00
3:55 AM,25.0,17.1,72,29.95,10.0,NNW,27.6,44.9,0.00,,Overcast,330,2012-12-20 09:55:00
4:55 AM,25.0,17.1,72,29.98,10.0,NW,25.3,35.7,N/A,,Overcast,320,2012-12-20 10:55:00
5:55 AM,23.0,15.1,72,30.02,10.0,NNW,25.3,33.4,N/A,,Scattered Clouds,330,2012-12-20 11:55:00
6:55 AM,19.9,14.0,78,30.06,10.0,NW,20.7,26.5,N/A,,Clear,320,2012-12-20 12:55:00
7:55 AM,19.9,12.9,74,30.10,10.0,NW,20.7,28.8,N/A,,Clear,310,2012-12-20 13:55:00
8:55 AM,19.9,12.9,74,30.14,10.0,NW,20.7,27.6,N/A,,Clear,310,2012-12-20 14:55:00
9:55 AM,21.9,14.0,72,30.18,10.0,NW,18.4,27.6,N/A,,Clear,310,2012-12-20 15:55:00
10:55 AM,25.0,15.1,66,30.19,10.0,NW,23.0,28.8,N/A,,Clear,320,2012-12-20 16:55:00
11:55 AM,26.1,16.0,66,30.20,10.0,NW,20.7,26.5,N/A,,Clear,310,2012-12-20 17:55:00
12:55 PM,28.0,16.0,61,30.22,10.0,NW,13.8,24.2,N/A,,Clear,310,2012-12-20 18:55:00
1:55 PM,30.9,14.0,50,30.22,10.0,NW,18.4,28.8,N/A,,Clear,310,2012-12-20 19:55:00
2:55 PM,32.0,16.0,52,30.23,10.0,WNW,16.1,25.3,N/A,,Clear,300,2012-12-20 20:55:00
3:55 PM,32.0,16.0,52,30.24,10.0,WNW,13.8,19.6,N/A,,Clear,300,2012-12-20 21:55:00
4:55 PM,30.0,15.1,54,30.24,10.0,WNW,8.1,-,N/A,,Clear,300,2012-12-20 22:55:00
5:55 PM,27.0,15.1,61,30.26,10.0,West,10.4,-,N/A,,Clear,280,2012-12-20 23:55:00
6:55 PM,24.1,15.1,69,30.28,10.0,West,10.4,-,N/A,,Clear,260,2012-12-21 00:55:00
7:55 PM,23.0,14.0,68,30.30,10.0,West,10.4,-,N/A,,Clear,270,2012-12-21 01:55:00
8:55 PM,23.0,14.0,68,30.30,10.0,West,10.4,-,N/A,,Clear,260,2012-12-21 02:55:00
9:55 PM,21.9,12.9,68,30.30,10.0,West,9.2,-,N/A,,Clear,260,2012-12-21 03:55:00
10:55 PM,19.9,12.9,74,30.31,10.0,West,5.8,-,N/A,,Clear,270,2012-12-21 04:55:00
11:55 PM,21.9,12.9,68,30.31,10.0,West,6.9,-,N/A,,Clear,260,2012-12-21 05:55:00